Weather History for Canberra, CT

Change the Weather History Date:

Saturday, May 18, 2013

  Actual Average Record
Temperature  
Mean Temperature 42 °F -  
Max Temperature 59 °F 56 °F - ()
Min Temperature 24 °F 35 °F - ()
Degree Days  
Heating Degree Days 24    
Moisture  
Dew Point 32 °F    
Average Humidity 78    
Maximum Humidity 100    
Minimum Humidity 24    
Precipitation  
Precipitation 0.00 in 0.05 in - ()
Sea Level Pressure  
Sea Level Pressure 29.96 in    
Wind  
Wind Speed 5 mph ()    
Max Wind Speed 18 mph    
Max Gust Speed -    
Visibility 4.9 miles    
Events Fog    
T = Trace of Precipitation, MM = Missing Value Source: Averaged Metar Reports

Daily Weather History Graph

Daily Weather History Graph

Search for Another Location

Airport:

Trip Planner

Search our weather history database for the weather conditions in past years. The results will help you decide how hot, cold, wet, or windy it might be!

Date:

Astronomy

May. 18, 2013 Rise Set
Actual Time 6:53 AM AEST 5:05 PM AEST
Civil Twilight 6:26 AM AEST 5:32 PM AEST
Nautical Twilight 5:55 AM AEST 6:03 PM AEST
Astronomical Twilight 5:24 AM AEST 6:34 PM AEST
Moon 12:29 PM AEST (5/18) No Moon Set
Length of Visible Light 11h 06m
Length of Day
10h 12m
Waxing Crescent, 49% of the Moon is Illuminated
May 18
Waxing Crescent
May 18
First Quarter
May 25
Full
Jun 1
Last Quarter
Jun 9
New

Hourly Weather History & Observations

Time (AEST) Temp. Windchill Dew Point Humidity Pressure Visibility Wind Dir Wind Speed Gust Speed Precip Events Conditions
12:00 AM 40 °F - 39 °F 93% 29.97 in - North 2.3 mph - -  
12:00 AM 41.0 °F - 39.2 °F 93% 29.95 in 6.2 mi North 2.3 mph - N/A   Unknown
12:30 AM 39.2 °F - 35.6 °F 87% 29.95 in 6.2 mi Calm Calm - N/A   Unknown
1:00 AM 36 °F - 34 °F 88% 29.96 in - Calm Calm - -  
1:00 AM 35.6 °F - 33.8 °F 93% 29.95 in 6.2 mi Calm Calm - N/A   Unknown
1:30 AM 35.6 °F - 35.6 °F 100% 29.95 in 6.2 mi Calm Calm - N/A   Unknown
1:53 AM 32.0 °F 25.6 °F 30.2 °F 93% 29.95 in - SSW 6.9 mph - N/A   Unknown
2:00 AM 32.0 °F 25.6 °F 30.2 °F 93% 29.95 in 0.9 mi South 6.9 mph - N/A   Unknown
2:01 AM 32.0 °F 25.6 °F 30.2 °F 93% 29.95 in 0.6 mi South 6.9 mph - N/A   Unknown
2:02 AM 32.0 °F 25.6 °F 32.0 °F 100% 29.95 in 0.4 mi South 6.9 mph - N/A   Unknown
2:03 AM 32.0 °F 25.6 °F 30.2 °F 93% 29.95 in 0.3 mi South 6.9 mph - N/A   Unknown
2:04 AM 32.0 °F 26.4 °F 30.2 °F 93% 29.95 in 0.2 mi South 5.8 mph - N/A   Unknown
2:16 AM 32.0 °F 26.4 °F 32.0 °F 100% 29.95 in 0.1 mi South 5.8 mph - N/A   Unknown
2:30 AM 32.0 °F 27.5 °F 32.0 °F 100% 29.95 in 0.1 mi SSE 4.6 mph - N/A   Unknown
2:31 AM 32.0 °F 27.5 °F 32.0 °F 100% 29.95 in 0.1 mi SSE 4.6 mph - N/A   Unknown
2:32 AM 32.0 °F 27.5 °F 32.0 °F 100% 29.95 in 0.2 mi SSE 4.6 mph - N/A   Unknown
2:34 AM 32.0 °F 26.4 °F 32.0 °F 100% 29.95 in 0.3 mi SSE 5.8 mph - N/A   Unknown
2:35 AM 32.0 °F 26.4 °F 32.0 °F 100% 29.95 in 0.4 mi SSE 5.8 mph - N/A   Unknown
2:40 AM 33.8 °F 28.6 °F 32.0 °F 93% 29.95 in 0.9 mi SE 5.8 mph - N/A   Unknown
2:48 AM 32.0 °F 25.6 °F 30.2 °F 93% 29.95 in 0.8 mi SE 6.9 mph - N/A   Unknown
3:00 AM 32 °F - 31 °F 97% 29.96 in - SE 5.8 mph - -  
3:00 AM 32.0 °F 26.4 °F 32.0 °F 100% 29.95 in 6.2 mi SE 5.8 mph - N/A   Unknown
3:01 AM 32.0 °F 27.5 °F 32.0 °F 100% 29.95 in 6.2 mi SE 4.6 mph - N/A   Unknown
3:08 AM 30.2 °F 26.7 °F 30.2 °F 100% 29.95 in 6.2 mi SE 3.5 mph - N/A   Unknown
3:26 AM 30.2 °F - 30.2 °F 100% 29.95 in 3.7 mi Calm Calm - N/A   Unknown
3:27 AM 30.2 °F - 30.2 °F 100% 29.95 in - Calm Calm - N/A   Unknown
3:30 AM 32.0 °F - 30.2 °F 93% 29.95 in - SSE 1.2 mph - N/A   Unknown
3:36 AM 32.0 °F 28.7 °F 32.0 °F 100% 29.95 in - SE 3.5 mph - N/A   Unknown
3:49 AM 32.0 °F - 30.2 °F 93% 29.95 in 0.5 mi SE 2.3 mph - N/A   Unknown
4:00 AM 30 °F - 30 °F 98% 29.95 in - Calm Calm - -  
4:00 AM 30.2 °F - 30.2 °F 100% 29.95 in 0.2 mi Calm Calm - N/A   Scattered Clouds
4:28 AM 30.2 °F 24.3 °F 28.4 °F 93% 29.95 in 6.2 mi ESE 5.8 mph - N/A   Scattered Clouds
4:30 AM 28.4 °F 22.2 °F 28.4 °F 100% 29.95 in 6.2 mi ESE 5.8 mph - N/A   Unknown
4:34 AM 28.4 °F 22.2 °F 28.4 °F 100% 29.95 in 6.2 mi SE 5.8 mph - N/A   Unknown
5:00 AM 28.4 °F 24.6 °F 28.4 °F 100% 29.95 in 6.2 mi SSE 3.5 mph - N/A   Unknown
5:10 AM 30.2 °F - 28.4 °F 93% 29.95 in 3.7 mi SSW 1.2 mph - N/A   Unknown
5:30 AM 28.4 °F 23.3 °F 28.4 °F 100% 29.95 in 6.2 mi SSE 4.6 mph - N/A   Unknown
6:00 AM 29 °F - 29 °F 99% 29.97 in 0 mi South 3.5 mph - -  
6:00 AM 28.4 °F 24.6 °F 28.4 °F 100% 29.95 in 6.2 mi South 3.5 mph - N/A Fog Light Freezing Fog
6:30 AM - - - N/A% 29.95 in 6.2 mi Calm Calm - N/A Fog Patches of Fog
7:00 AM 25 °F - 24 °F 95% 29.97 in - SSE 1.2 mph - -  
7:00 AM 24.8 °F - 24.8 °F 100% 29.95 in 6.2 mi SSE 1.2 mph - N/A Fog Patches of Fog
7:31 AM 26.6 °F - 26.6 °F 100% 29.98 in 6.2 mi ESE 2.3 mph - N/A Fog Patches of Fog
8:00 AM 30.2 °F 26.7 °F 30.2 °F 100% 29.98 in 6.2 mi SSE 3.5 mph - N/A Fog Patches of Fog
8:09 AM 33.8 °F 30.8 °F 33.8 °F 100% 29.98 in 6.2 mi SSE 3.5 mph - N/A Fog Patches of Fog
8:13 AM 33.8 °F 30.8 °F 33.8 °F 100% 29.98 in 6.2 mi SE 3.5 mph - N/A Fog Patches of Fog
8:16 AM 33.8 °F 29.6 °F 33.8 °F 100% 29.98 in 6.2 mi SE 4.6 mph - N/A Fog Patches of Fog
8:27 AM 37.4 °F 31.4 °F 37.4 °F 100% 29.98 in 6.2 mi SE 8.1 mph - N/A Fog Patches of Fog
8:30 AM 37.4 °F 30.8 °F 37.4 °F 100% 29.98 in 6.2 mi SE 9.2 mph - N/A Fog Patches of Fog
8:39 AM 39.2 °F 34.2 °F 35.6 °F 87% 29.98 in 6.2 mi SE 6.9 mph - N/A Fog Patches of Fog
9:00 AM 42 °F - 38 °F 83% 30.01 in 12 mi SSE 2.3 mph - -   Partly Cloudy
9:00 AM 41.0 °F - 39.2 °F 93% 29.98 in 6.2 mi SSE 2.3 mph - N/A   Partly Cloudy
9:30 AM 44.6 °F 43.1 °F 37.4 °F 76% 29.98 in 6.2 mi SE 3.5 mph - N/A   Partly Cloudy
10:00 AM 46 °F - 37 °F 62% 30.00 in - North 4.6 mph - -  
10:00 AM 46.4 °F 44.3 °F 37.4 °F 71% 29.98 in 6.2 mi North 4.6 mph - N/A   Partly Cloudy
10:30 AM 48.2 °F - 37.4 °F 66% 29.98 in 6.2 mi NNW 4.6 mph - N/A   Partly Cloudy
11:00 AM 51.8 °F - 35.6 °F 54% 29.98 in 6.2 mi West 3.5 mph - N/A   Partly Cloudy
11:30 AM 53.6 °F - 33.8 °F 47% 29.95 in 6.2 mi NNW 4.6 mph - N/A   Partly Cloudy
12:00 PM 56 °F - 32 °F 28% 29.95 in - NNW 6.9 mph - -  
12:00 PM 55.4 °F - 32.0 °F 41% 29.92 in 6.2 mi NNW 6.9 mph - N/A   Partly Cloudy
12:30 PM 57.2 °F - 32.0 °F 38% 29.92 in 6.2 mi NNW 6.9 mph - N/A   Partly Cloudy
1:00 PM 58 °F - 31 °F 24% 29.91 in - WNW 8.1 mph - -  
1:00 PM 57.2 °F - 30.2 °F 36% 29.89 in 6.2 mi WNW 8.1 mph - N/A   Partly Cloudy
1:30 PM 59.0 °F - 30.2 °F 34% 29.89 in 6.2 mi West 11.5 mph - N/A   Partly Cloudy
2:00 PM 59.0 °F - 32.0 °F 36% 29.89 in 6.2 mi West 13.8 mph - N/A   Partly Cloudy
2:30 PM 57.2 °F - 32.0 °F 38% 29.89 in 6.2 mi WNW 15.0 mph - N/A   Partly Cloudy
3:00 PM 57 °F - 32 °F 26% 29.91 in - WNW 17.3 mph - -  
3:00 PM 57.2 °F - 32.0 °F 38% 29.89 in 6.2 mi WNW 17.3 mph - N/A   Partly Cloudy
3:30 PM 55.4 °F - 32.0 °F 41% 29.89 in 6.2 mi NW 16.1 mph - N/A   Partly Cloudy
4:00 PM 54 °F - 32 °F 30% 29.91 in - WNW 17.3 mph - -  
4:00 PM 53.6 °F - 32.0 °F 44% 29.89 in 6.2 mi WNW 17.3 mph - N/A   Partly Cloudy
4:30 PM 51.8 °F - 32.0 °F 47% 29.92 in 6.2 mi WNW 18.4 mph - N/A   Partly Cloudy
5:00 PM 50.0 °F - 32.0 °F 50% 29.92 in 6.2 mi WNW 15.0 mph - N/A   Partly Cloudy
5:30 PM 48.2 °F - 30.2 °F 50% 29.92 in 6.2 mi NW 12.7 mph - N/A   Partly Cloudy
6:00 PM 48 °F - 32 °F 41% 29.96 in - WNW 12.7 mph - -  
6:00 PM 48.2 °F - 32.0 °F 54% 29.95 in 6.2 mi WNW 12.7 mph - N/A   Partly Cloudy
6:30 PM 46.4 °F 41.5 °F 32.0 °F 57% 29.95 in 6.2 mi WNW 10.4 mph - N/A   Unknown
7:00 PM 45 °F - 31 °F 46% 29.97 in - NW 8.1 mph - -  
7:00 PM 44.6 °F 40.2 °F 30.2 °F 57% 29.95 in 6.2 mi NW 8.1 mph - N/A   Unknown
7:30 PM 42.8 °F 37.5 °F 32.0 °F 66% 29.98 in 6.2 mi WNW 9.2 mph - N/A   Unknown
8:00 PM 42.8 °F 37.5 °F 32.0 °F 66% 29.98 in 6.2 mi NW 9.2 mph - N/A   Unknown
8:30 PM 41.0 °F 36.4 °F 32.0 °F 70% 29.98 in 6.2 mi NNW 6.9 mph - N/A   Unknown
9:00 PM 41 °F - 31 °F 57% 30.01 in - WNW 8.1 mph - -  
9:00 PM 41.0 °F 35.8 °F 30.2 °F 65% 30.01 in 6.2 mi WNW 8.1 mph - N/A   Unknown
9:30 PM 39.2 °F 34.2 °F 30.2 °F 70% 30.01 in 6.2 mi WNW 6.9 mph - N/A   Unknown
10:00 PM 36 °F - 30 °F 72% 30.01 in - WSW 3.5 mph - -  
10:00 PM 37.4 °F 34.9 °F 30.2 °F 75% 30.01 in 6.2 mi WSW 3.5 mph - N/A   Unknown
10:30 PM 37.4 °F 34.9 °F 28.4 °F 70% 30.01 in 6.2 mi NE 3.5 mph - N/A   Unknown
11:00 PM 35.6 °F 30.7 °F 30.2 °F 81% 30.01 in 6.2 mi NNE 5.8 mph - N/A   Unknown
11:30 PM 30.2 °F - 24.8 °F 80% 30.01 in 6.2 mi SE 2.3 mph - N/A   Unknown